EW1587 Weather Reports


time (UTC)temp
C
wind
direction
speed
KPH
gust
KPH
rain 1hr
cm
rain 24hr
cm
rain mn
cm
humidity
%
barometer
mb
20260901143521 22 333 0.0 8.0 0.00 0.00 0.00 74 1013.9
20260901143049 22 330 1.6 8.0 0.00 0.00 0.00 75 1013.9
20260901142518 22 56 0.0 3.2 0.00 0.00 0.00 78 1013.8
20260901142008 22 266 0.0 4.8 0.00 0.00 0.00 79 1013.9
20260901141505 21 267 0.0 8.0 0.00 0.00 0.00 81 1013.9
20260901141007 21 323 3.2 9.7 0.00 0.00 0.00 81 1014.0
20260901140502 21 290 3.2 9.7 0.00 0.00 0.00 83 1014.0
20260901140001 20 312 1.6 9.7 0.00 0.00 0.00 85 1014.1
20260901135604 20 301 6.4 9.7 0.00 0.00 0.00 84 1014.1
20260901135102 20 302 4.8 9.7 0.00 0.00 0.00 87 1014.0
20260901134606 20 295 6.4 8.0 0.00 0.00 0.00 88 1014.0
20260901134056 20 294 0.0 4.8 0.00 0.00 0.00 92 1014.1
20260901133555 19 295 0.0 1.6 0.00 0.00 0.00 92 1014.1
20260901133054 19 253 0.0 1.6 0.00 0.00 0.00 94 1014.0
20260901132554 18 259 0.0 1.6 0.00 0.00 0.00 94 1014.1
20260901132053 18 277 0.0 1.6 0.00 0.00 0.00 94 1014.1
20260901131557 18 297 0.0 1.6 0.00 0.00 0.00 94 1014.0
20260901131051 18 300 0.0 1.6 0.00 0.00 0.00 94 1013.9
20260901130552 18 280 0.0 1.6 0.00 0.00 0.00 94 1013.7
20260901130049 18 252 0.0 4.8 0.00 0.00 0.00 95 1013.7
20260901125551 17 246 0.0 6.4 0.00 0.00 0.00 96 1013.6
20260901125049 17 276 1.6 6.4 0.00 0.00 0.00 97 1013.7
20260901124549 17 286 1.6 4.8 0.00 0.00 0.00 97 1013.7
20260901124047 17 301 0.0 0.0 0.00 0.00 0.00 97 1013.6
20260901123547 17 301 0.0 0.0 0.00 0.00 0.00 98 1013.5
20260901123048 17 295 0.0 1.6 0.00 0.00 0.00 98 1013.5
20260901122546 16 283 0.0 4.8 0.00 0.00 0.00 98 1013.5
20260901122044 16 293 3.2 4.8 0.00 0.00 0.00 98 1013.5
20260901121548 16 284 0.0 3.2 0.00 0.00 0.00 98 1013.5
20260901121044 16 240 0.0 8.0 0.00 0.00 0.00 99 1013.5
20260901120543 16 283 3.2 8.0 0.00 0.00 0.00 100 1013.3
20260901120045 16 286 1.6 4.8 0.00 0.00 0.00 100 1013.1
20260901115541 16 302 0.0 1.6 0.00 0.00 0.00 100 1013.1
20260901115041 16 294 0.0 0.0 0.00 0.00 0.00 99 1013.1
20260901114543 16 294 0.0 1.6 0.00 0.00 0.00 99 1013.0
20260901114038 16 294 0.0 1.6 0.00 0.00 0.00 100 1012.8
20260901113542 16 283 0.0 4.8 0.00 0.00 0.00 100 1012.8
20260901113038 16 297 0.0 4.8 0.00 0.00 0.00 100 1012.9
20260901112536 16 288 0.0 3.2 0.00 0.00 0.00 100 1012.8
20260901112038 16 253 0.0 4.8 0.00 0.00 0.00 100 1012.8
20260901111537 15 278 0.0 4.8 0.00 0.00 0.00 100 1012.7
20260901111033 15 284 0.0 1.6 0.00 0.00 0.00 99 1012.7
20260901110532 15 287 0.0 0.0 0.00 0.00 0.00 99 1012.7
20260901110034 15 290 0.0 0.0 0.00 0.00 0.00 99 1012.6
20260901105531 15 290 0.0 0.0 0.00 0.00 0.00 99 1012.6
20260901105033 16 290 0.0 1.6 0.00 0.00 0.00 99 1012.5
20260901104533 16 290 0.0 1.6 0.00 0.00 0.00 99 1012.5
20260901104029 16 273 0.0 0.0 0.00 0.00 0.00 99 1012.6
20260901103528 16 273 0.0 0.0 0.00 0.00 0.00 99 1012.7
20260901103027 16 298 0.0 0.0 0.00 0.00 0.00 99 1012.6
20260901102527 16 298 0.0 1.6 0.00 0.00 0.00 99 1012.5
20260901102026 16 300 0.0 1.6 0.00 0.00 0.00 99 1012.5
20260901101526 16 307 0.0 1.6 0.00 0.00 0.00 99 1012.5
20260901101025 16 298 0.0 3.2 0.00 0.00 0.00 100 1012.6
20260901100524 16 308 0.0 3.2 0.00 0.00 0.00 100 1012.5
20260901100024 16 248 0.0 1.6 0.00 0.00 0.00 99 1012.5
20260901095524 16 246 0.0 0.0 0.00 0.00 0.00 99 1012.5
20260901095025 16 236 0.0 1.6 0.00 0.00 0.00 99 1012.4
20260901094527 16 240 0.0 1.6 0.00 0.00 0.00 99 1012.2
20260901094023 16 240 0.0 0.0 0.00 0.00 0.00 99 1012.2
20260901093527 16 240 0.0 0.0 0.00 0.00 0.00 99 1012.2
20260901093022 16 243 0.0 0.0 0.00 0.00 0.00 99 1012.2
20260901092522 16 243 0.0 0.0 0.00 0.00 0.00 99 1012.1
20260901092024 16 243 0.0 0.0 0.00 0.00 0.00 99 1012.0
20260901091523 16 244 0.0 0.0 0.00 0.00 0.00 99 1012.0
20260901091020 16 242 0.0 0.0 0.00 0.00 0.00 98 1012.0
20260901090520 16 228 0.0 0.0 0.00 0.00 0.00 98 1012.0
20260901090021 16 228 0.0 0.0 0.00 0.00 0.00 98 1012.1
20260901085520 16 228 0.0 0.0 0.00 0.00 0.00 98 1012.0
20260901085020 16 226 0.0 0.0 0.00 0.00 0.00 98 1012.0
20260901084519 16 226 0.0 1.6 0.00 0.00 0.00 98 1011.9
20260901084020 16 227 0.0 3.2 0.00 0.00 0.00 98 1011.8
20260901083518 16 233 0.0 3.2 0.00 0.00 0.00 98 1011.9
20260901083023 16 242 0.0 1.6 0.00 0.00 0.00 98 1012.0
20260901082516 16 242 0.0 0.0 0.00 0.00 0.00 98 1012.0
20260901082018 16 219 0.0 0.0 0.00 0.00 0.00 98 1011.9
20260901081518 16 164 0.0 0.0 0.00 0.00 0.00 97 1011.9
20260901081015 16 162 0.0 0.0 0.00 0.00 0.00 97 1011.9
20260901080514 16 162 0.0 0.0 0.00 0.00 0.00 97 1012.0
20260901080013 16 162 0.0 0.0 0.00 0.00 0.00 97 1011.9
20260901075512 16 162 0.0 0.0 0.00 0.00 0.00 96 1011.9
20260901075012 16 162 0.0 0.0 0.00 0.00 0.00 96 1012.0
20260901074511 16 162 0.0 0.0 0.00 0.00 0.00 96 1012.0
20260901074010 16 162 0.0 0.0 0.00 0.00 0.00 96 1012.0
20260901073510 16 162 0.0 0.0 0.00 0.00 0.00 96 1011.9
20260901073009 16 162 0.0 0.0 0.00 0.00 0.00 96 1012.0
20260901072509 16 162 0.0 1.6 0.00 0.00 0.00 96 1012.0
20260901072007 16 18 0.0 1.6 0.00 0.00 0.00 96 1012.1
20260901071508 16 22 0.0 1.6 0.00 0.00 0.00 96 1012.2
20260901071008 16 22 0.0 1.6 0.00 0.00 0.00 96 1012.3
20260901070506 16 22 0.0 0.0 0.00 0.00 0.00 95 1012.3
20260901070011 16 22 0.0 0.0 0.00 0.00 0.00 94 1012.4
20260901065505 16 22 0.0 0.0 0.00 0.00 0.00 94 1012.5
20260901065008 17 22 0.0 0.0 0.00 0.00 0.00 94 1012.4
20260901064506 17 22 0.0 0.0 0.00 0.00 0.00 94 1012.4
20260901064004 17 22 0.0 0.0 0.00 0.00 0.00 93 1012.4
20260901063502 17 22 0.0 0.0 0.00 0.00 0.00 93 1012.5
20260901063001 17 22 0.0 0.0 0.00 0.00 0.00 93 1012.5
20260901062501 17 16 0.0 0.0 0.00 0.00 0.00 93 1012.5
20260901062059 17 16 0.0 0.0 0.00 0.00 0.00 93 1012.6
20260901061600 17 16 0.0 0.0 0.00 0.00 0.00 92 1012.6
20260901061057 17 16 0.0 0.0 0.00 0.00 0.00 92 1012.6
20260901060556 17 16 0.0 0.0 0.00 0.00 0.00 92 1012.5
20260901060055 17 302 0.0 0.0 0.00 0.00 0.00 91 1012.4
20260901055554 18 302 0.0 0.0 0.00 0.00 0.00 90 1012.4
20260901055053 18 302 0.0 0.0 0.00 0.00 0.00 89 1012.2
20260901054554 18 302 0.0 0.0 0.00 0.00 0.00 89 1012.3
20260901054051 18 302 0.0 0.0 0.00 0.00 0.00 89 1012.3
20260901053551 18 294 0.0 1.6 0.00 0.00 0.00 89 1012.3
20260901053051 18 285 0.0 1.6 0.00 0.00 0.00 89 1012.3
20260901052548 18 296 0.0 1.6 0.00 0.00 0.00 90 1012.4
20260901052047 18 309 0.0 0.0 0.00 0.00 0.00 90 1012.3
20260901051547 19 305 0.0 0.0 0.00 0.00 0.00 91 1012.2
20260901051048 19 304 0.0 0.0 0.00 0.00 0.00 91 1012.3
20260901050546 19 295 0.0 1.6 0.00 0.00 0.00 91 1012.2
20260901050045 19 295 0.0 1.6 0.00 0.00 0.00 91 1012.1
20260901045545 19 295 0.0 0.0 0.00 0.00 0.00 91 1012.0
20260901045044 19 295 0.0 0.0 0.00 0.00 0.00 91 1012.0
20260901044547 19 295 0.0 1.6 0.00 0.00 0.00 91 1012.0
20260901044044 19 297 0.0 4.8 0.00 0.00 0.00 91 1012.0
20260901043544 19 290 0.0 4.8 0.00 0.00 0.00 91 1012.0
20260901043044 19 284 0.0 0.0 0.00 0.00 0.00 91 1012.0
20260901042547 19 282 0.0 1.6 0.00 0.00 0.00 91 1011.9
20260901042042 19 281 0.0 1.6 0.00 0.00 0.00 90 1011.8
20260901041559 19 284 0.0 0.0 0.00 0.00 0.00 90 1011.8
20260901041041 19 297 0.0 0.0 0.00 0.00 0.00 89 1011.8
20260901040541 19 296 0.0 0.0 0.00 0.00 0.00 89 1011.8
20260901040041 19 296 0.0 0.0 0.00 0.00 0.00 88 1011.8
20260901035541 20 305 0.0 0.0 0.00 0.00 0.00 86 1011.7
20260901035040 20 303 0.0 0.0 0.00 0.00 0.00 85 1011.7
20260901034541 20 305 0.0 3.2 0.00 0.00 0.00 85 1011.8
20260901034043 20 305 0.0 3.2 0.00 0.00 0.00 86 1011.8
20260901033539 20 302 0.0 1.6 0.00 0.00 0.00 86 1011.8
20260901033039 20 311 0.0 1.6 0.00 0.00 0.00 85 1011.8
20260901032539 20 293 0.0 0.0 0.00 0.00 0.00 85 1011.8
20260901032040 20 293 0.0 1.6 0.00 0.00 0.00 84 1011.9
20260901031538 21 290 0.0 1.6 0.00 0.00 0.00 85 1011.8
20260901031040 21 294 0.0 3.2 0.00 0.00 0.00 83 1011.7
20260901030637 21 288 0.0 3.2 0.00 0.00 0.00 82 1011.6
20260901030035 21 295 0.0 1.6 0.00 0.00 0.00 80 1011.5
20260901025536 21 307 0.0 1.6 0.00 0.00 0.00 79 1011.4
20260901025038 21 307 0.0 6.4 0.00 0.00 0.00 78 1011.3
20260901024535 21 304 1.6 6.4 0.00 0.00 0.00 79 1011.3
20260901024035 21 281 3.2 6.4 0.00 0.00 0.00 81 1011.3
20260901023535 21 285 1.6 4.8 0.00 0.00 0.00 84 1011.3
20260901023041 21 263 0.0 1.6 0.00 0.00 0.00 82 1011.3
20260901022534 21 305 0.0 4.8 0.00 0.00 0.00 82 1011.5
20260901022033 21 267 0.0 4.8 0.00 0.00 0.00 82 1011.4
20260901021535 21 280 1.6 4.8 0.00 0.00 0.00 83 1011.4
20260901021035 21 297 0.0 1.6 0.00 0.00 0.00 81 1011.3
20260901020533 21 297 0.0 1.6 0.00 0.00 0.00 81 1011.2
20260901020031 21 298 0.0 0.0 0.00 0.00 0.00 80 1011.2
20260901015533 21 298 0.0 0.0 0.00 0.00 0.00 78 1011.2
20260901015031 22 298 0.0 0.0 0.00 0.00 0.00 77 1011.2
20260901014530 22 298 0.0 0.0 0.00 0.00 0.00 77 1011.2
20260901014030 22 298 0.0 0.0 0.00 0.00 0.00 75 1011.1
20260901013530 22 298 0.0 1.6 0.00 0.00 0.00 74 1011.0
20260901013030 22 299 0.0 1.6 0.00 0.00 0.00 73 1011.0
20260901012528 22 283 0.0 1.6 0.00 0.00 0.00 73 1010.9
20260901012027 22 269 0.0 1.6 0.00 0.00 0.00 73 1010.9
20260901011527 22 283 0.0 0.0 0.00 0.00 0.00 73 1010.9
20260901011027 22 282 0.0 0.0 0.00 0.00 0.00 72 1010.8
20260901010527 23 282 0.0 0.0 0.00 0.00 0.00 71 1010.8
20260901010026 23 282 0.0 0.0 0.00 0.00 0.00 70 1010.8
20260901005526 24 282 0.0 0.0 0.00 0.00 0.00 69 1010.7
20260901005026 25 283 0.0 0.0 0.00 0.00 0.00 68 1010.7
20260901004525 25 303 0.0 0.0 0.00 0.00 0.00 67 1010.6
20260901004025 25 304 0.0 3.2 0.00 0.00 0.00 66 1010.6
20260901003528 26 303 0.0 8.0 0.00 0.00 0.00 64 1010.6
20260901003026 26 315 3.2 9.7 0.00 0.00 0.00 62 1010.6
20260901002525 26 294 4.8 9.7 0.00 0.00 0.00 60 1010.6
20260901002024 26 290 4.8 8.0 0.00 0.00 0.00 59 1010.7
20260901001524 27 307 1.6 6.4 0.00 0.00 0.00 60 1010.7
20260901001023 27 285 3.2 6.4 0.00 0.00 0.00 58 1010.6
20260901000524 27 295 3.2 8.0 0.00 0.00 0.00 58 1010.6
20260901000023 27 296 1.6 8.0 0.00 0.00 0.00 57 1010.6
20260831235527 27 288 4.8 8.0 0.00 0.00 0.00 55 1010.6
20260831235023 27 293 4.8 8.0 0.00 0.00 0.00 55 1010.6
20260831234524 27 287 4.8 8.0 0.00 0.00 0.00 55 1010.6
20260831234023 27 297 4.8 11.3 0.00 0.00 0.00 55 1010.6
20260831233526 27 295 8.0 11.3 0.00 0.00 0.00 53 1010.6
20260831233023 27 301 8.0 12.9 0.00 0.00 0.00 52 1010.6
20260831232523 28 282 6.4 12.9 0.00 0.00 0.00 52 1010.6
20260831232025 28 297 6.4 11.3 0.00 0.00 0.00 53 1010.6
20260831231529 28 263 1.6 11.3 0.00 0.00 0.00 53 1010.6
20260831231022 28 288 4.8 11.3 0.00 0.00 0.00 53 1010.6
20260831230521 28 276 4.8 11.3 0.00 0.00 0.00 53 1010.6
20260831230026 28 278 3.2 8.0 0.00 0.00 0.00 53 1010.6
20260831225521 28 239 0.0 11.3 0.00 0.00 0.00 53 1010.5
20260831225020 28 290 3.2 11.3 0.00 0.00 0.00 52 1010.5
20260831224519 29 269 4.8 11.3 0.00 0.00 0.00 52 1010.4
20260831224019 29 256 1.6 11.3 0.00 0.00 0.00 51 1010.4
20260831223520 29 275 1.6 11.3 0.00 0.00 0.00 50 1010.4
20260831223020 29 297 6.4 11.3 0.00 0.00 0.00 46 1010.4
20260831222520 30 295 3.2 12.9 0.00 0.00 0.00 48 1010.2
20260831222018 30 261 6.4 12.9 0.00 0.00 0.00 46 1010.3
20260831221518 30 298 3.2 11.3 0.00 0.00 0.00 48 1010.3
20260831221018 30 290 6.4 11.3 0.00 0.00 0.00 44 1010.3
20260831220522 31 286 3.2 8.0 0.00 0.00 0.00 45 1010.2
20260831220017 31 252 1.6 9.7 0.00 0.00 0.00 45 1010.3
20260831215517 30 276 0.0 9.7 0.00 0.00 0.00 47 1010.3
20260831215017 30 281 3.2 9.7 0.00 0.00 0.00 46 1010.3
20260831214515 30 294 1.6 12.9 0.00 0.00 0.00 46 1010.3
20260831214017 30 287 6.4 12.9 0.00 0.00 0.00 45 1010.4
20260831213516 30 290 1.6 11.3 0.00 0.00 0.00 47 1010.2
20260831213014 30 290 3.2 11.3 0.00 0.00 0.00 46 1010.1
20260831212515 31 298 4.8 11.3 0.00 0.00 0.00 46 1010.2
20260831212013 31 274 0.0 11.3 0.00 0.00 0.00 47 1010.2
20260831211524 31 313 1.6 6.4 0.00 0.00 0.00 45 1010.2
20260831211011 31 77 0.0 4.8 0.00 0.00 0.00 39 1010.3
20260831210510 31 271 1.6 8.0 0.00 0.00 0.00 40 1010.3
20260831210010 31 242 0.0 8.0 0.00 0.00 0.00 39 1010.2
20260831205510 31 298 1.6 8.0 0.00 0.00 0.00 40 1010.2
20260831205009 31 290 1.6 9.7 0.00 0.00 0.00 38 1010.2
20260831204511 31 297 3.2 9.7 0.00 0.00 0.00 38 1010.2
20260831204006 31 349 0.0 6.4 0.00 0.00 0.00 40 1010.3
20260831203507 31 307 3.2 6.4 0.00 0.00 0.00 40 1010.3
20260831203015 31 18 0.0 12.9 0.00 0.00 0.00 44 1010.3
20260831202504 30 320 1.6 12.9 0.00 0.00 0.00 42 1010.3
20260831202003 30 346 0.0 8.0 0.00 0.00 0.00 43 1010.3
20260831201504 30 47 1.6 8.0 0.00 0.00 0.00 44 1010.3
20260831201003 30 1 0.0 8.0 0.00 0.00 0.00 45 1010.4
20260831200502 30 315 4.8 8.0 0.00 0.00 0.00 45 1010.4
20260831200002 30 60 0.0 8.0 0.00 0.00 0.00 43 1010.3
20260831195504 30 69 1.6 8.0 0.00 0.00 0.00 42 1010.2
20260831195001 30 313 0.0 8.0 0.00 0.00 0.00 44 1010.1
20260831194623 30 65 3.2 8.0 0.00 0.00 0.00 41 1010.0
20260831194059 30 304 1.6 8.0 0.00 0.00 0.00 41 1010.1
20260831193600 30 16 0.0 8.0 0.00 0.00 0.00 43 1010.1
20260831193057 30 31 0.0 4.8 0.00 0.00 0.00 42 1010.1
20260831192559 29 6 0.0 11.3 0.00 0.00 0.00 44 1010.0
20260831192055 29 79 4.8 11.3 0.00 0.00 0.00 44 1009.9
20260831191555 29 54 0.0 12.9 0.00 0.00 0.00 45 1010.0
20260831191056 29 62 8.0 14.5 0.00 0.00 0.00 45 1010.0
20260831190554 29 285 3.2 12.9 0.00 0.00 0.00 45 1010.1
20260831190058 29 89 1.6 8.0 0.00 0.00 0.00 44 1010.1
20260831185553 29 14 1.6 8.0 0.00 0.00 0.00 47 1010.1
20260831185052 29 51 1.6 8.0 0.00 0.00 0.00 51 1010.2
20260831184552 29 320 1.6 8.0 0.00 0.00 0.00 54 1010.2
20260831184051 28 324 1.6 8.0 0.00 0.00 0.00 56 1010.0
20260831183550 28 25 1.6 8.0 0.00 0.00 0.00 53 1009.9
20260831183050 29 29 0.0 8.0 0.00 0.00 0.00 57 1010.0
20260831182553 30 71 0.0 9.7 0.00 0.00 0.00 53 1009.9
20260831182053 29 58 0.0 6.4 0.00 0.00 0.00 58 1009.9
20260831181548 28 341 0.0 8.0 0.00 0.00 0.00 55 1009.9
20260831181048 28 346 1.6 9.7 0.00 0.00 0.00 57 1010.0
20260831180548 28 336 1.6 9.7 0.00 0.00 0.00 60 1010.0
20260831180048 28 77 3.2 14.5 0.00 0.00 0.00 57 1010.0
20260831175548 29 67 4.8 14.5 0.00 0.00 0.00 56 1010.0
20260831175052 30 72 0.0 6.4 0.00 0.00 0.00 54 1010.0
20260831174547 30 328 0.0 6.4 0.00 0.00 0.00 55 1010.1
20260831174049 30 311 0.0 6.4 0.00 0.00 0.00 55 1010.1
20260831173548 29 311 0.0 8.0 0.00 0.00 0.00 57 1010.0
20260831173045 29 123 1.6 8.0 0.00 0.00 0.00 56 1010.1
20260831172543 28 30 0.0 8.0 0.00 0.00 0.00 62 1010.2
20260831172041 28 349 0.0 9.7 0.00 0.00 0.00 62 1010.3
20260831171540 28 57 0.0 11.3 0.00 0.00 0.00 63 1010.3
20260831171039 28 276 0.0 6.4 0.00 0.00 0.00 69 1010.3
20260831170538 28 63 0.0 6.4 0.00 0.00 0.00 69 1010.4
20260831170036 27 323 0.0 6.4 0.00 0.00 0.00 71 1010.3
20260831165535 27 321 0.0 8.0 0.00 0.00 0.00 74 1010.2
20260831165033 27 18 1.6 8.0 0.00 0.00 0.00 74 1010.3
20260831164531 26 94 0.0 4.8 0.00 0.00 0.00 76 1010.3
20260831164031 26 345 1.6 4.8 0.00 0.00 0.00 75 1010.3
20260831163530 26 46 0.0 8.0 0.00 0.00 0.00 77 1010.3
20260831163032 26 289 1.6 8.0 0.00 0.00 0.00 77 1010.3
20260831162529 26 321 0.0 3.2 0.00 0.00 0.00 80 1010.3
20260831162028 26 286 0.0 6.4 0.00 0.00 0.00 79 1010.3
20260831161532 26 328 0.0 6.4 0.00 0.00 0.00 79 1010.2
20260831161026 26 298 1.6 11.3 0.00 0.00 0.00 78 1010.2
20260831160526 26 326 0.0 11.3 0.00 0.00 0.00 78 1010.1
20260831160025 26 25 1.6 8.0 0.00 0.00 0.00 80 1010.1
20260831155524 25 277 0.0 4.8 0.00 0.00 0.00 81 1010.0
20260831155023 25 319 0.0 8.0 0.00 0.00 0.00 82 1010.0
20260831154522 25 354 0.0 8.0 0.00 0.00 0.00 83 1009.9
20260831154025 25 77 1.6 8.0 0.00 0.00 0.00 84 1009.9
20260831153520 25 322 0.0 4.8 0.00 0.00 0.00 85 1009.8
20260831153018 25 74 0.0 6.4 0.00 0.00 0.00 86 1009.8
20260831152518 25 300 0.0 6.4 0.00 0.00 0.00 86 1009.8
20260831152017 25 92 0.0 4.8 0.00 0.00 0.00 87 1009.7
20260831151517 24 1 0.0 4.8 0.00 0.00 0.00 88 1009.8
20260831151014 24 357 0.0 4.8 0.00 0.00 0.00 89 1009.7
20260831150513 24 62 0.0 4.8 0.00 0.00 0.00 88 1009.5
20260831150014 24 117 0.0 8.0 0.00 0.00 0.00 89 1009.4
20260831145510 24 335 0.0 9.7 0.00 0.00 0.00 88 1009.4
20260831145009 23 323 1.6 9.7 0.00 0.00 0.00 89 1009.3
20260831144509 23 44 0.0 8.0 0.00 0.00 0.00 90 1009.2
20260831144009 23 332 1.6 8.0 0.00 0.00 0.00 90 1009.2